Tracking 32941 objects as of 15-Jan-2026
HD Live streaming from Space Station
objects crossing your sky now

STARLINK-1554

Track STARLINK-1554 now!
10-day predictions
STARLINK-1554 is classified as:


NORAD ID: 46055
Int'l Code: 2020-055AE
Perigee: 553.5 km
Apogee: 555.2 km
Inclination: 53.1 °
Period: 95.6 minutes
Semi major axis: 6925 km
RCS: Unknown
Launch date: August 7, 2020
Source: United States (US)
Launch site: AIR FORCE EASTERN TEST RANGE (AFETR)
Your satellite tracking list
Your tracking list is empty




NASA's NSSDC Master Catalog

Two Line Element Set (TLE):
1 46055U 20055AE  26015.33900449  .00004333  00000-0  30954-3 0  9995
2 46055  53.0549 356.1182 0001190  91.7481 268.3644 15.06407840300994
Source of the keplerian elements: AFSPC